CHH730 EBBR-ZBAA

Flight info

Callsign CHH730
Flight time N/A
Altitude 37000
Route SOPOK3G SOPOK Y863 ROPUV L607 EMGOD DCT BOMBI DCT TENLO DCT DEXIT DCT MAREG DCT ALAMU DCT BUDOP DCT UDROS UM859 KARDE UN644 ROLIN N644 LAGAS M747 SUBUT T916 LEYLA/N0488F390 N161 GASBI/K0906F390 N161 DZG DCT AMASO DCT SARIN/K0904S1190 A368 FKG W188 ESGIV/K0902S1250 W188 GOVSA W66 DKO W69 GUVBA GUVBA4E
Aircraft B789/H-SDE1E2E3FGHIJ2J3J4J5M1RWXY/LB1D1

Departure

Time 2026-05-04 05:28
Airport Brussels Airport (EBBR)

Arrival

Time N/A
Airport Beijing Capital International Airport (ZBAA)
Time Latitude Longitude Altitude Speed Heading
2026-05-04 05:25 50.90505 4.48591 123 ft 24 kts 65°
2026-05-04 05:25 50.90575 4.48834 122 ft 24 kts 65°
2026-05-04 05:25 50.90644 4.49070 124 ft 23 kts 65°
2026-05-04 05:26 50.90709 4.49297 124 ft 22 kts 65°
2026-05-04 05:26 50.90771 4.49511 123 ft 21 kts 65°
2026-05-04 05:26 50.90832 4.49717 126 ft 20 kts 51°
2026-05-04 05:26 50.90948 4.49812 124 ft 19 kts 33°
2026-05-04 05:27 50.91057 4.49935 121 ft 20 kts 21°
2026-05-04 05:28 50.89146 4.43223 1283 ft 187 kts 246°
2026-05-04 05:29 50.88593 4.41308 1734 ft 193 kts 245°
2026-05-04 05:29 50.87736 4.39530 1711 ft 228 kts 216°
2026-05-04 05:29 50.86091 4.38864 1697 ft 261 kts 173°
2026-05-04 05:29 50.84474 4.40041 2538 ft 260 kts 139°
2026-05-04 05:31 50.77744 4.57703 7340 ft 280 kts 126°
2026-05-04 05:31 50.76663 4.60228 7973 ft 282 kts 127°
2026-05-04 05:32 50.75541 4.62802 8620 ft 285 kts 127°
2026-05-04 05:32 50.74332 4.65288 9183 ft 286 kts 136°
2026-05-04 05:32 50.72990 4.67621 9832 ft 289 kts 135°
2026-05-04 05:33 50.70270 4.72586 10530 ft 313 kts 135°
2026-05-04 05:33 50.69039 4.75529 10635 ft 338 kts 114°
2026-05-04 05:33 50.68337 4.79161 10906 ft 353 kts 109°
2026-05-04 05:33 50.67642 4.82942 11177 ft 366 kts 109°
2026-05-04 05:34 50.66878 4.86852 11497 ft 377 kts 110°
2026-05-04 05:34 50.66078 4.90824 12048 ft 381 kts 110°
2026-05-04 05:34 50.65286 4.94834 12635 ft 385 kts 110°
2026-05-04 05:34 50.64498 4.98871 13215 ft 388 kts 110°
2026-05-04 05:35 50.63706 5.02896 13787 ft 391 kts 111°
2026-05-04 05:35 50.62890 5.07001 14288 ft 394 kts 110°
2026-05-04 05:35 50.62066 5.11140 14786 ft 398 kts 110°
2026-05-04 05:35 50.61234 5.15331 15241 ft 402 kts 110°
2026-05-04 05:36 50.60396 5.19544 15738 ft 406 kts 110°
2026-05-04 05:36 50.59546 5.23799 16221 ft 409 kts 110°
2026-05-04 05:36 50.58647 5.28057 16646 ft 411 kts 114°
2026-05-04 05:36 50.57192 5.31911 17056 ft 410 kts 131°
2026-05-04 05:37 50.55190 5.35081 17547 ft 408 kts 141°
2026-05-04 05:37 50.53059 5.38071 18002 ft 412 kts 141°
2026-05-04 05:37 50.50912 5.41096 18436 ft 415 kts 141°
2026-05-04 05:38 50.46625 5.47243 19364 ft 418 kts 141°
2026-05-04 05:38 50.44463 5.50309 19823 ft 419 kts 141°
2026-05-04 05:38 50.42290 5.53378 20278 ft 421 kts 141°
2026-05-04 05:38 50.40119 5.56455 20727 ft 422 kts 142°
2026-05-04 05:39 50.37946 5.59539 21195 ft 422 kts 142°
2026-05-04 05:39 50.33563 5.65726 22053 ft 425 kts 142°
2026-05-04 05:39 50.31361 5.68829 22458 ft 427 kts 142°
2026-05-04 05:40 50.27045 5.75313 23152 ft 437 kts 133°
2026-05-04 05:40 50.25368 5.79308 23585 ft 444 kts 123°
2026-05-04 05:40 50.24192 5.83818 23877 ft 454 kts 111°
2026-05-04 05:41 50.23397 5.88544 24147 ft 457 kts 109°
2026-05-04 05:41 50.22596 5.93363 24430 ft 459 kts 109°
2026-05-04 05:41 50.21775 5.98202 24680 ft 462 kts 109°
2026-05-04 05:41 50.20943 6.03054 24947 ft 464 kts 109°
2026-05-04 05:42 50.20111 6.07943 25188 ft 467 kts 109°
2026-05-04 05:42 50.19278 6.12851 25476 ft 469 kts 109°
2026-05-04 05:42 50.18547 6.17837 25687 ft 476 kts 102°
2026-05-04 05:42 50.18418 6.23042 25932 ft 485 kts 90°
2026-05-04 05:43 50.18749 6.28295 26186 ft 488 kts 87°
2026-05-04 05:43 50.19115 6.33570 26450 ft 490 kts 87°
2026-05-04 05:43 50.19449 6.38875 26706 ft 492 kts 88°
2026-05-04 05:45 50.21712 6.76662 28556 ft 507 kts 88°
2026-05-04 05:45 50.22042 6.82155 28800 ft 508 kts 88°
2026-05-04 05:47 50.20304 7.20743 30449 ft 516 kts 98°
2026-05-04 05:47 50.19988 7.26323 30657 ft 518 kts 98°
2026-05-04 05:47 50.19693 7.31864 30891 ft 519 kts 98°
2026-05-04 05:48 50.19234 7.37469 31036 ft 519 kts 101°
2026-05-04 05:48 50.18727 7.43068 31330 ft 519 kts 101°
2026-05-04 05:48 50.18235 7.48645 31654 ft 519 kts 101°
2026-05-04 05:48 50.17740 7.54216 31965 ft 518 kts 101°
2026-05-04 05:49 50.17240 7.59711 32289 ft 517 kts 101°
2026-05-04 05:49 50.16730 7.65256 32562 ft 517 kts 101°
2026-05-04 05:49 50.16222 7.70808 32855 ft 517 kts 101°
2026-05-04 05:49 50.15716 7.76353 33171 ft 516 kts 101°